Location: Mahannah Oil Field
(37.4664°N, 96.6003°W)
Time: 15:15:12
(UTC+00:00)

Altair - Pass Details

Date: 21 January 2021
Orbit: 1501 x 1682 km, 47.2° (Epoch: 05 March)

Event Time Altitude Azimuth Distance (km) Brightness Sun altitude
Exits shadow 12:05:39 - 234° (SW) 4,300 9.4 -18.1°
Reaches altitude 10° 12:06:59 10° 234° (SW) 3,885 9.2 -17.8°
Maximum altitude 12:17:02 89° 146° (SE) 1,680 7.7 -15.9°
Drops below altitude 10° 12:27:16 10° 58° (ENE) 3,946 10.3 -13.9°
Sets 12:30:26 0° 59° (ENE) 4,930 10.9 -13.3°
